XAX585 RPLL-WMKK

Flight info

Callsign XAX585
Flight time 2h 0m
Altitude 38000
Route BUCAL2R BUCAL M646 TOKON/N0474F390 M767 TEGID/N0470F400 M767 TERIX M758 IDSEL Y335 PADLI Y343 SAROX SAROX1G
Aircraft A339/H-SADE1E2E3GHIJ3J5M1P2RWXY/LB2D1

Departure

Time 2026-05-08 07:46
Airport Ninoy Aquino International Airport (RPLL)

Arrival

Time 2026-05-08 09:46
Airport Kuala Lumpur International Airport (WMKK)
Time Latitude Longitude Altitude Speed Heading
2026-05-08 07:14 14.50429 121.00518 73 ft 0 kts 307°
2026-05-08 07:36 14.50420 121.00530 63 ft 3 kts 307°
2026-05-08 07:36 14.50408 121.00545 63 ft 3 kts 293°
2026-05-08 07:37 14.50401 121.00561 66 ft 3 kts 260°
2026-05-08 07:37 14.50404 121.00578 73 ft 3 kts 226°
2026-05-08 07:37 14.50416 121.00590 63 ft 0 kts 219°
2026-05-08 07:41 14.50415 121.00589 63 ft 1 kts 219°
2026-05-08 07:42 14.50378 121.00567 64 ft 12 kts 209°
2026-05-08 07:42 14.50300 121.00508 65 ft 14 kts 229°
2026-05-08 07:42 14.50244 121.00427 69 ft 14 kts 238°
2026-05-08 07:42 14.50185 121.00355 82 ft 13 kts 215°
2026-05-08 07:43 14.50115 121.00311 84 ft 10 kts 223°
2026-05-08 07:43 14.50076 121.00252 87 ft 10 kts 238°
2026-05-08 07:43 14.50040 121.00190 84 ft 10 kts 239°
2026-05-08 07:43 14.50005 121.00128 90 ft 10 kts 240°
2026-05-08 07:44 14.49971 121.00068 89 ft 10 kts 240°
2026-05-08 07:44 14.49932 121.00000 92 ft 13 kts 234°
2026-05-08 07:44 14.49846 120.99983 91 ft 14 kts 166°
2026-05-08 07:44 14.49803 121.00040 92 ft 2 kts 90°
2026-05-08 07:45 14.49810 121.00051 90 ft 4 kts 64°
2026-05-08 07:45 14.49874 121.00167 90 ft 57 kts 60°
2026-05-08 07:45 14.50214 121.00777 63 ft 136 kts 60°
2026-05-08 07:45 14.50796 121.01803 110 ft 189 kts 56°
2026-05-08 07:46 14.51517 121.02885 1036 ft 176 kts 59°
2026-05-08 07:46 14.52132 121.03945 2042 ft 171 kts 63°
2026-05-08 07:46 14.52682 121.05100 2618 ft 189 kts 72°
2026-05-08 07:46 14.52984 121.06469 3093 ft 204 kts 82°
2026-05-08 07:47 14.53136 121.07992 3461 ft 223 kts 86°
2026-05-08 07:47 14.53198 121.09663 3765 ft 242 kts 89°
2026-05-08 07:47 14.53142 121.11426 4266 ft 248 kts 94°
2026-05-08 07:47 14.52639 121.13134 4746 ft 255 kts 118°
2026-05-08 07:48 14.51383 121.14438 5293 ft 262 kts 146°
2026-05-08 07:48 14.49620 121.15059 5649 ft 280 kts 172°
2026-05-08 07:48 14.47668 121.14793 6179 ft 290 kts 199°
2026-05-08 07:48 14.45949 121.13680 6765 ft 295 kts 221°
2026-05-08 07:49 14.44459 121.12195 7291 ft 300 kts 224°
2026-05-08 07:49 14.42917 121.10743 7890 ft 301 kts 219°
2026-05-08 07:49 14.41253 121.09417 8453 ft 304 kts 214°
2026-05-08 07:49 14.39494 121.08199 9052 ft 306 kts 211°
2026-05-08 07:50 14.37667 121.07043 9609 ft 310 kts 209°
2026-05-08 07:50 14.35808 121.05904 10173 ft 312 kts 209°
2026-05-08 07:50 14.33892 121.04726 10382 ft 330 kts 210°
2026-05-08 07:50 14.31880 121.03474 10541 ft 347 kts 210°
2026-05-08 07:51 14.29775 121.02148 10741 ft 361 kts 210°
2026-05-08 07:51 14.27618 121.00789 11223 ft 365 kts 210°
2026-05-08 07:51 14.25449 120.99417 11745 ft 367 kts 210°
2026-05-08 07:51 14.23266 120.98038 12247 ft 370 kts 210°
2026-05-08 07:52 14.21058 120.96645 12764 ft 373 kts 210°
2026-05-08 07:52 14.18837 120.95244 13300 ft 375 kts 210°
2026-05-08 07:52 14.16596 120.93833 13742 ft 379 kts 211°
2026-05-08 07:52 14.14351 120.92402 14219 ft 380 kts 211°
2026-05-08 07:53 14.12105 120.90959 14648 ft 383 kts 211°
2026-05-08 07:53 14.09865 120.89530 15105 ft 384 kts 211°
2026-05-08 07:53 14.07554 120.88065 15550 ft 386 kts 210°
2026-05-08 07:53 14.05292 120.86642 16020 ft 387 kts 210°
2026-05-08 07:54 14.02985 120.85193 16457 ft 389 kts 210°
2026-05-08 07:54 14.00639 120.83720 16886 ft 391 kts 210°
2026-05-08 07:54 13.98340 120.82276 17286 ft 393 kts 210°
2026-05-08 07:54 13.95996 120.80804 17701 ft 396 kts 210°
2026-05-08 07:55 13.93650 120.79330 18123 ft 397 kts 210°
2026-05-08 07:55 13.91274 120.77838 18464 ft 400 kts 210°
2026-05-08 07:55 13.88891 120.76343 18811 ft 402 kts 210°
2026-05-08 07:55 13.86500 120.74842 19151 ft 405 kts 210°
2026-05-08 07:56 13.84088 120.73327 19507 ft 407 kts 210°
2026-05-08 07:56 13.81662 120.71805 19638 ft 409 kts 210°
2026-05-08 07:56 13.79237 120.70284 19730 ft 409 kts 210°
2026-05-08 07:56 13.76803 120.68755 19808 ft 410 kts 210°
2026-05-08 07:57 13.74367 120.67226 19812 ft 411 kts 210°
2026-05-08 07:57 13.71930 120.65698 19813 ft 410 kts 210°
2026-05-08 07:57 13.69495 120.64172 19816 ft 411 kts 210°
2026-05-08 07:57 13.67045 120.62635 19817 ft 413 kts 210°
2026-05-08 07:58 13.64598 120.61098 19816 ft 412 kts 210°
2026-05-08 07:58 13.62157 120.59565 19815 ft 412 kts 210°
2026-05-08 07:58 13.59683 120.58092 19815 ft 411 kts 206°
2026-05-08 07:58 13.57114 120.56801 19817 ft 409 kts 203°
2026-05-08 07:59 13.54528 120.55577 19816 ft 409 kts 203°
2026-05-08 07:59 13.51950 120.54345 19814 ft 410 kts 203°
2026-05-08 07:59 13.48173 120.52533 19813 ft 409 kts 204°
2026-05-08 07:59 13.37872 120.47571 19815 ft 408 kts 204°
2026-05-08 08:00 13.27593 120.42642 19821 ft 407 kts 204°
2026-05-08 08:00 13.17315 120.37707 19791 ft 409 kts 204°
2026-05-08 08:00 13.06988 120.32753 19834 ft 409 kts 204°
2026-05-08 08:00 12.96678 120.27811 19780 ft 409 kts 204°
2026-05-08 08:01 12.86351 120.22857 19831 ft 410 kts 204°
2026-05-08 08:01 12.76024 120.17917 19812 ft 410 kts 204°
2026-05-08 08:01 12.65699 120.12981 19791 ft 410 kts 204°
2026-05-08 08:01 12.55472 120.08097 19816 ft 410 kts 203°
2026-05-08 08:02 12.45135 120.03169 19801 ft 410 kts 203°
2026-05-08 08:02 12.34777 119.98231 19795 ft 410 kts 203°
2026-05-08 08:02 12.24437 119.93306 19828 ft 410 kts 203°
2026-05-08 08:02 12.13985 119.88336 21223 ft 418 kts 204°
2026-05-08 08:03 12.03292 119.83251 22739 ft 428 kts 204°
2026-05-08 08:03 11.92383 119.78073 24126 ft 436 kts 204°
2026-05-08 08:03 11.81282 119.72804 25404 ft 445 kts 204°
2026-05-08 08:03 11.70213 119.66902 26624 ft 454 kts 220°
2026-05-08 08:04 11.62411 119.56732 27865 ft 460 kts 235°
2026-05-08 08:04 11.54800 119.46125 29152 ft 466 kts 235°
2026-05-08 08:04 11.47091 119.35364 30380 ft 472 kts 235°
2026-05-08 08:04 11.39311 119.24512 31574 ft 477 kts 235°
2026-05-08 08:05 11.31434 119.13537 32593 ft 481 kts 235°
2026-05-08 08:05 11.23517 119.02509 33205 ft 485 kts 235°
2026-05-08 08:05 11.15541 118.91415 33796 ft 484 kts 234°
2026-05-08 08:05 11.08383 118.81463 34345 ft 480 kts 234°
2026-05-08 08:06 11.06412 118.78722 34481 ft 480 kts 234°
2026-05-08 08:06 11.04442 118.75984 34633 ft 479 kts 234°
2026-05-08 08:06 11.02471 118.73249 34792 ft 478 kts 234°
2026-05-08 08:06 11.00507 118.70526 34949 ft 477 kts 234°
2026-05-08 08:07 10.98547 118.67808 35086 ft 476 kts 234°
2026-05-08 08:07 10.96579 118.65099 35209 ft 476 kts 234°
2026-05-08 08:07 10.94624 118.62391 35361 ft 475 kts 234°
2026-05-08 08:07 10.92671 118.59674 35509 ft 475 kts 234°
2026-05-08 08:08 10.90748 118.57003 35667 ft 474 kts 234°
2026-05-08 08:08 10.88801 118.54301 35798 ft 474 kts 233°
2026-05-08 08:08 10.86854 118.51601 35815 ft 473 kts 233°
2026-05-08 08:09 10.82961 118.46207 35814 ft 473 kts 233°
2026-05-08 08:09 10.79066 118.40817 35817 ft 473 kts 233°
2026-05-08 08:10 10.75171 118.35429 35815 ft 473 kts 233°
2026-05-08 08:10 10.71270 118.30036 35816 ft 473 kts 233°
2026-05-08 08:11 10.67373 118.24650 35815 ft 474 kts 233°
2026-05-08 08:11 10.63464 118.19251 35817 ft 473 kts 233°
2026-05-08 08:12 10.59557 118.13858 35818 ft 474 kts 233°
2026-05-08 08:12 10.55648 118.08464 35815 ft 474 kts 233°
2026-05-08 08:13 10.51743 118.03078 35818 ft 473 kts 233°
2026-05-08 08:13 10.47829 117.97683 35820 ft 474 kts 233°
2026-05-08 08:14 10.43909 117.92282 35819 ft 475 kts 233°
2026-05-08 08:14 10.39985 117.86878 35819 ft 476 kts 233°
2026-05-08 08:15 10.36082 117.81508 35818 ft 476 kts 233°
2026-05-08 08:15 10.32165 117.76077 35819 ft 476 kts 233°
2026-05-08 08:16 10.28283 117.70639 35817 ft 476 kts 233°
2026-05-08 08:16 10.24385 117.65191 35818 ft 477 kts 233°
2026-05-08 08:17 10.20486 117.59750 35820 ft 476 kts 233°
2026-05-08 08:17 10.16585 117.54312 35815 ft 477 kts 233°
2026-05-08 08:18 10.13314 117.49752 35816 ft 477 kts 233°
2026-05-08 08:18 10.09407 117.44308 35818 ft 477 kts 233°
2026-05-08 08:19 10.05524 117.38900 35817 ft 477 kts 232°
2026-05-08 08:19 10.01587 117.33424 35819 ft 478 kts 233°
2026-05-08 08:20 9.97695 117.28013 35819 ft 478 kts 232°
2026-05-08 08:20 9.93775 117.22561 35817 ft 478 kts 232°
2026-05-08 08:21 9.89854 117.17109 35818 ft 479 kts 232°
2026-05-08 08:21 9.85928 117.11657 35815 ft 479 kts 232°
2026-05-08 08:22 9.81999 117.06204 35813 ft 479 kts 232°
2026-05-08 08:22 9.78066 117.00746 35813 ft 479 kts 232°
2026-05-08 08:23 9.74134 116.95291 35812 ft 479 kts 232°
2026-05-08 08:23 9.70200 116.89837 35816 ft 479 kts 232°
2026-05-08 08:24 9.66261 116.84381 35816 ft 480 kts 232°
2026-05-08 08:24 9.62318 116.78914 35815 ft 481 kts 232°
2026-05-08 08:25 9.58392 116.73475 35816 ft 482 kts 232°
2026-05-08 08:25 9.54431 116.67997 35816 ft 482 kts 232°
2026-05-08 08:26 9.50469 116.62516 35815 ft 482 kts 232°
2026-05-08 08:26 9.46499 116.57027 35815 ft 483 kts 232°
2026-05-08 08:27 9.42525 116.51535 35811 ft 484 kts 232°
2026-05-08 08:27 9.38545 116.46036 35816 ft 484 kts 232°
2026-05-08 08:28 9.34559 116.40533 35813 ft 485 kts 232°
2026-05-08 08:28 9.30572 116.35024 35816 ft 485 kts 232°
2026-05-08 08:29 9.26583 116.29522 35816 ft 485 kts 232°
2026-05-08 08:29 9.22598 116.24067 35815 ft 485 kts 232°
2026-05-08 08:30 9.18562 116.18597 35814 ft 485 kts 232°
2026-05-08 08:30 9.12545 116.10358 35817 ft 485 kts 232°
2026-05-08 08:31 9.08542 116.04857 35812 ft 485 kts 232°
2026-05-08 08:31 9.04530 115.99366 35811 ft 485 kts 232°
2026-05-08 08:32 9.00499 115.93894 35814 ft 485 kts 232°
2026-05-08 08:32 8.96480 115.88423 35809 ft 484 kts 233°
2026-05-08 08:33 8.92490 115.82943 35814 ft 484 kts 233°
2026-05-08 08:33 8.88490 115.77475 35812 ft 483 kts 233°
2026-05-08 08:34 8.84487 115.72009 35811 ft 483 kts 233°
2026-05-08 08:34 8.80486 115.66549 35814 ft 483 kts 233°
2026-05-08 08:35 8.76483 115.61092 35813 ft 483 kts 233°
2026-05-08 08:35 8.72483 115.55642 35813 ft 482 kts 233°
2026-05-08 08:36 8.68482 115.50194 35817 ft 482 kts 233°
2026-05-08 08:36 8.64486 115.44755 35817 ft 481 kts 233°
2026-05-08 08:37 8.60494 115.39322 35813 ft 481 kts 232°
2026-05-08 08:37 8.56500 115.33906 35813 ft 480 kts 232°
2026-05-08 08:38 8.52506 115.28491 35813 ft 480 kts 232°
2026-05-08 08:38 8.48527 115.23083 35811 ft 479 kts 232°
2026-05-08 08:39 8.44548 115.17676 35817 ft 480 kts 232°
2026-05-08 08:39 8.38301 115.09192 35811 ft 478 kts 232°
2026-05-08 08:40 8.22387 114.87596 35810 ft 480 kts 233°
2026-05-08 08:40 8.06442 114.65994 35803 ft 480 kts 233°
2026-05-08 08:41 7.90463 114.44382 35809 ft 481 kts 233°
2026-05-08 08:41 7.74460 114.22771 35810 ft 481 kts 233°
2026-05-08 08:42 7.58544 114.01309 35804 ft 481 kts 233°
2026-05-08 08:42 7.42420 113.79599 35808 ft 480 kts 233°
2026-05-08 08:43 7.26516 113.58211 35809 ft 479 kts 233°
2026-05-08 08:43 7.10488 113.36683 35805 ft 481 kts 233°
2026-05-08 08:44 6.94453 113.15180 35811 ft 481 kts 233°
2026-05-08 08:44 6.78371 112.93639 35815 ft 481 kts 233°
2026-05-08 08:45 6.62286 112.72125 35806 ft 482 kts 233°
2026-05-08 08:45 6.46156 112.50578 35807 ft 482 kts 233°
2026-05-08 08:46 6.29962 112.29075 35812 ft 482 kts 232°
2026-05-08 08:46 6.13802 112.07535 35813 ft 483 kts 233°
2026-05-08 08:47 5.97631 111.85974 35814 ft 483 kts 233°
2026-05-08 08:47 5.81418 111.64381 35830 ft 484 kts 233°
2026-05-08 08:48 5.65131 111.42732 35804 ft 487 kts 233°
2026-05-08 08:48 5.48768 111.21014 35801 ft 489 kts 233°
2026-05-08 08:49 5.32327 110.99217 35791 ft 491 kts 233°
2026-05-08 08:49 5.15811 110.77345 35796 ft 492 kts 233°
2026-05-08 08:50 4.99291 110.55490 35785 ft 492 kts 232°
2026-05-08 08:50 4.82765 110.33649 35784 ft 493 kts 232°
2026-05-08 08:51 4.66200 110.11776 35774 ft 493 kts 232°
2026-05-08 08:51 4.49629 109.89915 35782 ft 493 kts 232°
2026-05-08 08:52 4.33023 109.68026 35823 ft 492 kts 232°
2026-05-08 08:52 4.25427 109.56624 35820 ft 495 kts 247°
2026-05-08 08:52 4.21718 109.43341 35829 ft 495 kts 255°
2026-05-08 08:53 4.14728 109.16653 35782 ft 496 kts 255°
2026-05-08 08:53 4.07730 108.89942 35821 ft 495 kts 255°
2026-05-08 08:54 4.05261 108.80529 35808 ft 496 kts 255°
2026-05-08 08:54 4.03518 108.73842 35812 ft 496 kts 256°
2026-05-08 08:55 4.01826 108.67144 35803 ft 496 kts 256°
2026-05-08 08:55 4.00106 108.60450 35813 ft 496 kts 256°
2026-05-08 08:56 3.98368 108.53811 35803 ft 496 kts 256°
2026-05-08 08:56 3.96621 108.47128 35808 ft 496 kts 256°
2026-05-08 08:57 3.94873 108.40442 35808 ft 496 kts 255°
2026-05-08 08:57 3.93126 108.33768 35808 ft 496 kts 255°
2026-05-08 08:58 3.91352 108.27085 35808 ft 496 kts 254°
2026-05-08 08:58 3.89539 108.20410 35810 ft 496 kts 254°
2026-05-08 08:59 3.87781 108.13734 35811 ft 496 kts 255°
2026-05-08 08:59 3.86045 108.07045 35804 ft 496 kts 255°
2026-05-08 09:00 3.84311 108.00350 35819 ft 497 kts 255°
2026-05-08 09:00 3.82571 107.93664 35801 ft 496 kts 255°
2026-05-08 09:01 3.80853 107.86971 35808 ft 496 kts 256°
2026-05-08 09:01 3.78140 107.76338 35808 ft 496 kts 256°
2026-05-08 09:02 3.74638 107.62989 35812 ft 496 kts 255°
2026-05-08 09:02 3.71133 107.49654 35810 ft 495 kts 255°
2026-05-08 09:03 3.67633 107.36316 35805 ft 495 kts 255°
2026-05-08 09:03 3.64133 107.22987 35807 ft 495 kts 255°
2026-05-08 09:04 3.60638 107.09682 35813 ft 494 kts 255°
2026-05-08 09:04 3.57131 106.96386 35812 ft 494 kts 254°
2026-05-08 09:05 3.55575 106.82768 35817 ft 494 kts 266°
2026-05-08 09:05 3.54886 106.69142 35815 ft 494 kts 266°
2026-05-08 09:06 3.54187 106.55400 35811 ft 494 kts 266°
2026-05-08 09:06 3.53599 106.43909 35820 ft 494 kts 266°
2026-05-08 09:07 3.52899 106.30168 35811 ft 494 kts 266°
2026-05-08 09:07 3.52210 106.16429 35810 ft 494 kts 266°
2026-05-08 09:08 3.51600 106.04401 35819 ft 494 kts 266°
2026-05-08 09:08 3.51250 105.97535 35811 ft 495 kts 266°
2026-05-08 09:09 3.50893 105.90652 35817 ft 495 kts 266°
2026-05-08 09:09 3.50542 105.83783 35812 ft 495 kts 266°
2026-05-08 09:10 3.50191 105.76915 35812 ft 495 kts 266°
2026-05-08 09:10 3.49850 105.70061 35820 ft 495 kts 266°
2026-05-08 09:11 3.49507 105.63182 35811 ft 495 kts 266°
2026-05-08 09:11 3.49163 105.56302 35811 ft 495 kts 266°
2026-05-08 09:12 3.48816 105.49409 35808 ft 496 kts 266°
2026-05-08 09:12 3.48469 105.42520 35809 ft 496 kts 266°
2026-05-08 09:13 3.48122 105.35639 35821 ft 496 kts 266°
2026-05-08 09:13 3.47774 105.28735 35820 ft 496 kts 266°
2026-05-08 09:14 3.47426 105.21845 35814 ft 496 kts 266°
2026-05-08 09:14 3.47076 105.14960 35812 ft 496 kts 266°
2026-05-08 09:15 3.46726 105.08068 35816 ft 495 kts 266°
2026-05-08 09:15 3.46376 105.01191 35824 ft 495 kts 266°
2026-05-08 09:16 3.46024 104.94304 35815 ft 495 kts 266°
2026-05-08 09:16 3.45673 104.87419 35814 ft 495 kts 266°
2026-05-08 09:17 3.45320 104.80535 35821 ft 495 kts 266°
2026-05-08 09:17 3.44968 104.73649 35825 ft 495 kts 266°
2026-05-08 09:18 3.44615 104.66772 35824 ft 495 kts 266°
2026-05-08 09:18 3.44261 104.59892 35822 ft 495 kts 266°
2026-05-08 09:19 3.43907 104.53008 35813 ft 495 kts 266°
2026-05-08 09:19 3.43558 104.46119 35812 ft 495 kts 266°
2026-05-08 09:20 3.43213 104.39229 35811 ft 496 kts 266°
2026-05-08 09:20 3.42866 104.32339 35815 ft 496 kts 267°
2026-05-08 09:21 3.42518 104.25441 35820 ft 496 kts 267°
2026-05-08 09:23 3.41305 104.01329 35814 ft 497 kts 267°
2026-05-08 09:23 3.40585 103.94462 35815 ft 497 kts 256°
2026-05-08 09:24 3.37585 103.87589 35813 ft 495 kts 236°
2026-05-08 09:24 3.30243 103.76014 35806 ft 496 kts 237°
2026-05-08 09:25 3.22891 103.64336 35806 ft 496 kts 237°
2026-05-08 09:25 3.15608 103.52624 35530 ft 493 kts 242°
2026-05-08 09:25 3.12874 103.46328 34100 ft 498 kts 247°
2026-05-08 09:26 3.10218 103.39863 32160 ft 504 kts 247°
2026-05-08 09:26 3.07536 103.33399 30940 ft 498 kts 246°
2026-05-08 09:26 3.04834 103.26894 30739 ft 508 kts 246°
2026-05-08 09:26 3.02135 103.20387 30538 ft 506 kts 247°
2026-05-08 09:27 2.96807 103.07472 30135 ft 504 kts 247°
2026-05-08 09:27 2.91439 102.94548 28499 ft 503 kts 247°
2026-05-08 09:27 2.86066 102.81652 25246 ft 493 kts 246°
2026-05-08 09:27 2.80911 102.69277 22435 ft 471 kts 246°
2026-05-08 09:28 2.77668 102.57304 21970 ft 441 kts 256°
2026-05-08 09:28 2.74731 102.45276 18829 ft 445 kts 256°
2026-05-08 09:28 2.72488 102.33520 16107 ft 413 kts 275°
2026-05-08 09:28 2.75429 102.23119 14683 ft 355 kts 287°
2026-05-08 09:29 2.77944 102.14437 13822 ft 305 kts 287°
2026-05-08 09:29 2.79165 102.10190 13077 ft 291 kts 286°
2026-05-08 09:29 2.80290 102.06258 12876 ft 295 kts 287°
2026-05-08 09:29 2.81422 102.02340 12811 ft 294 kts 287°
2026-05-08 09:30 2.82558 101.98414 12809 ft 294 kts 287°
2026-05-08 09:30 2.83697 101.94479 12808 ft 294 kts 287°
2026-05-08 09:30 2.84835 101.90549 12809 ft 294 kts 287°
2026-05-08 09:30 2.85594 101.86563 12773 ft 290 kts 263°
2026-05-08 09:31 2.84428 101.83797 12595 ft 273 kts 233°
2026-05-08 09:31 2.83251 101.82326 12159 ft 270 kts 229°
2026-05-08 09:31 2.82041 101.80927 11821 ft 261 kts 223°
2026-05-08 09:31 2.80524 101.79981 11377 ft 256 kts 196°
2026-05-08 09:32 2.78782 101.79829 10934 ft 251 kts 168°
2026-05-08 09:32 2.77200 101.80490 10500 ft 247 kts 143°
2026-05-08 09:32 2.75817 101.81503 10092 ft 246 kts 142°
2026-05-08 09:32 2.74453 101.82499 9850 ft 236 kts 143°
2026-05-08 09:33 2.73151 101.83412 9731 ft 221 kts 144°
2026-05-08 09:33 2.71913 101.84253 9622 ft 210 kts 144°
2026-05-08 09:33 2.70710 101.85055 9350 ft 207 kts 145°
2026-05-08 09:33 2.69517 101.85849 9037 ft 206 kts 145°
2026-05-08 09:34 2.68326 101.86641 8741 ft 205 kts 145°
2026-05-08 09:34 2.67139 101.87430 8441 ft 204 kts 145°
2026-05-08 09:34 2.65958 101.88218 8162 ft 203 kts 146°
2026-05-08 09:34 2.64786 101.89002 7894 ft 202 kts 146°
2026-05-08 09:35 2.63618 101.89783 7630 ft 201 kts 146°
2026-05-08 09:35 2.62454 101.90561 7355 ft 201 kts 146°
2026-05-08 09:35 2.61295 101.91336 7099 ft 200 kts 146°
2026-05-08 09:35 2.60142 101.92106 6845 ft 199 kts 146°
2026-05-08 09:36 2.58995 101.92874 6605 ft 198 kts 146°
2026-05-08 09:36 2.57851 101.93640 6366 ft 197 kts 146°
2026-05-08 09:36 2.56716 101.94400 6124 ft 196 kts 147°
2026-05-08 09:36 2.55584 101.95157 5874 ft 195 kts 147°
2026-05-08 09:37 2.54448 101.95892 5625 ft 194 kts 152°
2026-05-08 09:37 2.53146 101.96158 5317 ft 193 kts 186°
2026-05-08 09:37 2.51929 101.95648 5038 ft 193 kts 220°
2026-05-08 09:37 2.51144 101.94572 4802 ft 192 kts 239°
2026-05-08 09:38 2.50475 101.93417 4554 ft 192 kts 238°
2026-05-08 09:38 2.49778 101.92288 4317 ft 190 kts 236°
2026-05-08 09:38 2.49055 101.91181 4067 ft 190 kts 235°
2026-05-08 09:38 2.48318 101.90090 3818 ft 189 kts 234°
2026-05-08 09:39 2.47575 101.89004 3587 ft 188 kts 234°
2026-05-08 09:39 2.46858 101.87903 3263 ft 193 kts 242°
2026-05-08 09:39 2.46629 101.86556 2800 ft 205 kts 276°
2026-05-08 09:39 2.47205 101.85232 2363 ft 215 kts 311°
2026-05-08 09:40 2.48363 101.84406 2445 ft 194 kts 335°
2026-05-08 09:40 2.49592 101.83838 2499 ft 198 kts 333°
2026-05-08 09:40 2.50780 101.83167 2483 ft 193 kts 328°
2026-05-08 09:40 2.51896 101.82420 2482 ft 195 kts 325°
2026-05-08 09:41 2.53018 101.81664 2477 ft 193 kts 326°
2026-05-08 09:41 2.54137 101.80912 2503 ft 196 kts 325°
2026-05-08 09:41 2.55265 101.80154 2499 ft 194 kts 326°
2026-05-08 09:41 2.56387 101.79405 2500 ft 195 kts 326°
2026-05-08 09:42 2.57514 101.78649 2507 ft 191 kts 326°
2026-05-08 09:42 2.58577 101.77942 2426 ft 175 kts 326°
2026-05-08 09:42 2.59529 101.77301 2284 ft 155 kts 325°
2026-05-08 09:42 2.60389 101.76722 2226 ft 154 kts 326°
2026-05-08 09:43 2.61287 101.76123 2105 ft 154 kts 325°
2026-05-08 09:43 2.62173 101.75529 1948 ft 157 kts 324°
2026-05-08 09:43 2.63066 101.74931 1759 ft 150 kts 325°
2026-05-08 09:43 2.63956 101.74338 1586 ft 157 kts 325°
2026-05-08 09:44 2.64837 101.73747 1377 ft 151 kts 326°
2026-05-08 09:44 2.65738 101.73143 1188 ft 154 kts 326°
2026-05-08 09:44 2.66593 101.72570 990 ft 150 kts 326°
2026-05-08 09:44 2.67497 101.71968 808 ft 154 kts 327°
2026-05-08 09:45 2.68351 101.71389 630 ft 144 kts 327°
2026-05-08 09:45 2.69192 101.70829 447 ft 143 kts 327°
2026-05-08 09:45 2.70000 101.70288 295 ft 144 kts 327°
2026-05-08 09:45 2.70839 101.69731 135 ft 141 kts 329°
2026-05-08 09:46 2.71665 101.69202 48 ft 131 kts 325°
2026-05-08 09:46 2.72276 101.68788 43 ft 89 kts 325°
2026-05-08 09:46 2.72686 101.68610 45 ft 56 kts 347°
2026-05-08 09:46 2.72951 101.68540 44 ft 30 kts 327°
2026-05-08 09:47 2.72997 101.68507 45 ft 0 kts 326°
2026-05-08 09:47 2.73014 101.68495 45 ft 13 kts 326°
2026-05-08 09:47 2.73194 101.68376 43 ft 36 kts 327°
2026-05-08 09:47 2.73390 101.68403 51 ft 21 kts 11°
2026-05-08 09:48 2.73488 101.68499 49 ft 20 kts 41°
2026-05-08 09:48 2.73580 101.68595 51 ft 16 kts 41°
2026-05-08 09:48 2.73677 101.68603 49 ft 1 kts 335°
2026-05-08 09:49 2.74037 101.69117 47 ft 0 kts 309°